Regional Weather Roundup
Issued by NWS Boston, MA

Home | Current Version | Previous Version | Text Only | Print | Product List | Glossary On
Versions: 1 2 3 4 5 6 7 8 9 10 11 12 13 14 15 16 17 18 19 20 21 22 23 24 25 26 27 28 29 30 31 32 33 34 35 36 37 38 39 40 41 42 43 44 45 46 47 48 49 50
979
ASUS41 KBOX 241910
RWRBOX

REGIONAL WEATHER ROUNDUP
NATIONAL WEATHER SERVICE TAUNTON MA
300 PM EDT FRI MAR 24 2017

NOTE:  "FAIR" INDICATES FEW OR NO CLOUDS BELOW 12,000 FEET WITH NO
SIGNIFICANT WEATHER AND/OR OBSTRUCTIONS TO VISIBILITY.

MAZALL-242000-
EASTERN MASSACHUSETTS

CITY           SKY/WX    TMP DP  RH WIND       PRES   REMARKS
BOSTON         LGT RAIN  37  34  89 S15       30.21F WCI  28
BEVERLY        RAIN      36  33  89 S12       30.19F FOG     WCI  28
LAWRENCE       LGT RAIN  34  33  96 VRB5      30.21F FOG     WCI  30
BEDFORD        LGT RAIN  36  31  82 S3        30.17F
BLUE HILL        N/A     36  30  79 S23G31    30.15F WCI  24
NORWOOD        LGT RAIN  40  32  73 S8        30.19F
MARSHFIELD     CLOUDY    39  32  75 S12G21    30.21F WCI  32
PLYMOUTH       CLOUDY    39  31  72 S13G23    30.23F WCI  31
TAUNTON        CLOUDY    42  29  59 S12G30    30.22F
NEW BEDFORD    LGT RAIN  42  32  67 S13G24    30.24F
$$

MAZALL-242000-
CAPE COD AND THE ISLANDS

CITY           SKY/WX    TMP DP  RH WIND       PRES   REMARKS
FALMOUTH       CLOUDY    39  32  75 MISG      30.27F
HYANNIS        CLOUDY    40  32  73 S13G21    30.25F
CHATHAM        LGT RAIN  40  31  70 S12G24    30.30F
PROVINCETOWN   LGT RAIN  36  32  85 S20G29    30.25F WCI  25
NANTUCKET      CLOUDY    41  33  73 S17G25    30.32F
MARTHAS VNYRD  CLOUDY    42  32  67 S18G26    30.28F
$$

MAZALL-242000-
CENTRAL AND WESTERN MASSACHUSETTS

CITY           SKY/WX    TMP DP  RH WIND       PRES   REMARKS
WORCESTER      CLOUDY    36  26  67 SW16      30.13F WCI  26
FITCHBURG      LGT RAIN  36  33  89 SE3       30.17F
ORANGE         CLOUDY    35  30  82 S7        30.15F WCI  29
SPRINGFIELD    CLOUDY    40  29  64 S9        30.15F
WESTFIELD      CLOUDY    39  30  70 S13       30.16F WCI  31
NORTH ADAMS    CLOUDY    35  27  72 VRB5      30.13F WCI  31
PITTSFIELD     CLOUDY    35  26  69 SW7G18    30.10F WCI  29
$$

RIZALL-242000-
RHODE ISLAND

CITY           SKY/WX    TMP DP  RH WIND       PRES   REMARKS
PROVIDENCE     CLOUDY    43  26  51 SW22G30   30.23F
NEWPORT        CLOUDY    42  33  70 S14G26    30.24F
BLOCK ISLAND   CLOUDY    43  35  73 S18G26    30.25F
SMITHFIELD     CLOUDY    41  27  57 SW12G22   30.19F
WESTERLY       CLOUDY    44  34  67 SW15G22   30.25F
$$

CTZALL-242000-
CONNECTICUT

CITY           SKY/WX    TMP DP  RH WIND       PRES   REMARKS
BRADLEY INTL   CLOUDY    40  30  67 S10       30.18F
HARTFORD       CLOUDY    42  28  57 S13G22    30.20F
BRIDGEPORT     CLOUDY    45  32  60 SW10      30.23F
DANBURY        CLOUDY    42  29  59 S12G20    30.21F
GROTON         CLOUDY    43  32  65 SW18      30.23F
NEW HAVEN      CLOUDY    42  31  64 SW8       30.23F
CHESTER        NOT AVBL
MERIDEN        CLOUDY    44  27  51 S8G18     30.20F
WILLIMANTIC    CLOUDY    43  28  55 S9G18     30.21F
OXFORD         CLOUDY    41  25  52 SW13G18   30.20F
$$

MEZ002-015-021-024-NHZ003-005-008-011-012-014-VTZ005-008-242000-
NORTHERN NEW ENGLAND

CITY           SKY/WX    TMP DP  RH WIND       PRES   REMARKS
PORTLAND ME    LGT SNOW  33  31  92 S13G18    30.22F FOG     WCI  24
BANGOR ME      FLURRIES  31  27  85 S12       30.22F WCI  22
CONCORD NH     LGT SNOW  32  30  92 S5        30.17F FOG     WCI  27
MANCHESTER NH  NOT AVBL
NASHUA NH      NOT AVBL
PORTSMOUTH NH  LGT SNOW  33  32  93 S5        30.19F FOG     WCI  29
JAFFREY NH     NOT AVBL
KEENE NH       NOT AVBL
BURLINGTON VT  LGT SNOW  33  27  78 S15       30.07F WCI  23
MT. WASHINGTON SNOW      14  14 100 W46         N/A  VSB 0   WCI -10
$$

NYZ052-076-242000-
EASTERN NEW YORK

CITY           SKY/WX    TMP DP  RH WIND       PRES   REMARKS
ALBANY         CLOUDY    38  28  67 S13G22    30.10F WCI  30
NEW YORK CITY  CLOUDY    50  29  44 S10       30.22F
$$

ANZALL-242000-
MARINE OBSERVATIONS

STATION/POSITION TIME  TEMP    WIND        PRES    VSBY  WAVE
                       AIR SEA DIR/SP/G                  HT/PER
                 (UTC) (F)     (DEG/KT/KT) (MB)    (MI)  (FT/S)
BOSTON BUOY      1750   38 40  190/ 21/ 27 1025.1          3/ 4
BUZZARDS BAY     1800   40     190/ 19/ 21 1027.0F
NANTUCKET SOUND  1850      38              1026.1F         2/ 3
MASS BAY-STELLWA 1804   37 39  200/ 21/ 25 1023.6F         5/ 5
ISLE OF SHOALS   1800   34     170/ 17/ 19 1024.0F
S OF BLOCK IS    1855      40                N/A           4/ 5
$$

......................KEY.........................
  SKY/WX - SKY CONDITION/PRESENT WEATHER
  TMP    - TEMPERATURE IN FAHRENHEIT
  DWPT   - DEWPOINT IN FAHRENHEIT
  RH     - RELATIVE HUMIDITY IN PERCENT
  WIND   - DIRECTION AND SPEED IN MPH
  PRES   - MEAN SEA LEVEL PRESSURE IN INCHES OF HG
  WCI    - WIND CHILL INDEX
  VSB    - VISIBILITY IN MILES
  HX     - HEAT INDEX
  TC     - TEMPERATURE IN CELSIUS
  VRB    - VARIABLE WIND DIRECTION
  N/A    - NOT AVAILABLE




USA.gov is the U.S. government's official web portal to all federal, state and local government web resources and services.